[[{"header":{"parameterUnit":"m.s-1","parameterCategory":1,"la1":30.2991,"la2":30.254,"lo1":-89.0895,"lo2":-89.0444,"dx":0.0017,"dy":0.0017,"nx":28,"ny":28,"refTime":"2023-01-02T15:00:00:Z","depth":0,"parameterNumber":2,"parameterNumberName":"U-component_of_WINDS"},"data":[0,0,0,0,0,0,0,0,0,0,0,0,0,0,0,0,0,0,0,0,0,0,0,0,0,0,0,0,0,0,0,0,0,0,0,0,0,0,0,0,0,0,0,0,0,0,0,0,0,0,0,0,0,0,0,0,0,0,-2.267,-2.2671,0,-2.2759,-2.276,-2.2761,-2.2781,-2.278,-2.2779,-2.2779,-2.2873,-2.2876,-2.2879,0,0,0,0,0,0,0,0,0,0,0,0,0,-2.2517,-2.252,-2.267,-2.2671,-2.2672,-2.2759,-2.276,-2.2761,-2.2781,-2.278,-2.2779,-2.2779,-2.2872,-2.2876,-2.2879,0,0,0,0,0,0,0,0,0,0,0,0,0,-2.2593,-2.2521,-2.2669,-2.2692,-2.2695,-2.2759,-2.276,-2.2762,-2.2781,-2.278,-2.2779,-2.2778,-2.2871,-2.2875,-2.288,-2.2928,0,0,-2.2894,-2.2896,0,0,0,0,0,0,0,0,-2.2589,-2.2598,-2.2687,-2.269,-2.2694,-2.2758,-2.2741,-2.2818,-2.2781,-2.2748,-2.2779,-2.2778,-2.2836,-2.2843,-2.2862,-2.2933,-2.2937,-2.2895,-2.2897,-2.2899,-2.2901,0,0,0,0,0,0,0,-2.2583,-2.2595,-2.2705,-2.2689,-2.2693,-2.2698,-2.2708,-2.2756,-2.2796,-2.2751,-2.2753,-2.2763,-2.2837,-2.2858,-2.2864,-2.2938,-2.2894,-2.2899,-2.2901,-2.2903,-2.3053,-2.3054,0,0,0,0,0,0,-2.2574,-2.259,-2.2702,-2.2708,-2.2638,-2.2702,-2.2713,-2.2738,-2.2796,-2.2804,-2.2764,-2.2764,-2.285,-2.2859,-2.2868,-2.2928,-2.2899,-2.2904,-2.2906,-2.3052,-2.3053,-2.3054,0,0,0,0,0,0,-2.257,-2.2584,-2.2699,-2.2649,-2.2665,-2.2705,-2.2734,-2.2741,-2.2761,-2.2805,-2.2813,-2.2777,-2.285,-2.2861,-2.2913,-2.2931,-2.2906,-2.291,-2.305,-2.3052,-2.3054,-2.3048,0,0,0,0,0,0,-2.2566,-2.2582,-2.2601,-2.265,-2.2667,-2.2741,-2.2735,-2.2743,-2.2769,-2.2769,-2.282,-2.2827,-2.285,-2.2906,-2.2918,-2.2937,-2.2914,-2.3049,-2.3051,-2.3053,-2.3047,-2.305,-2.3052,0,0,0,0,0,-2.2561,-2.2596,-2.2601,-2.2615,-2.2691,-2.2742,-2.2752,-2.2777,-2.277,-2.2789,-2.2818,-2.2826,-2.2928,-2.2911,-2.2924,-2.2946,-2.3048,-2.3051,-2.3053,-2.3046,-2.3049,-2.3052,0,0,0,0,0,0,-2.2549,-2.2603,-2.2609,-2.2662,-2.2697,-2.2746,-2.277,-2.278,-2.2818,-2.2817,-2.2847,-2.2858,-2.2908,-2.2932,-2.2913,-2.2996,-2.2988,-2.2993,-2.2978,-2.2981,-2.2983,-2.2976,-2.2918,0,0,0,0,0,-2.2552,-2.2589,-2.2635,-2.2677,-2.2694,-2.2729,-2.2753,-2.2768,-2.2806,-2.2822,-2.2854,-2.2892,-2.2932,-2.2958,-2.2998,-2.3051,-2.3062,-2.3073,-2.3075,-2.3077,-2.3081,-2.311,-2.3115,-2.3063,-2.3063,-2.3063,0,0,-2.256,-2.2594,-2.2616,-2.2675,-2.2704,-2.2742,-2.2742,-2.2782,-2.281,-2.2828,-2.2878,-2.2904,-2.2948,-2.3,-2.3025,-2.3022,-2.3098,-2.308,-2.3081,-2.3084,-2.3114,-2.3118,-2.3123,-2.3065,-2.3065,-2.3064,0,0,-2.2593,-2.2623,-2.266,-2.269,-2.2734,-2.2757,-2.2766,-2.2813,-2.283,-2.2881,-2.2895,-2.293,-2.2999,-2.3029,-2.3054,-2.3098,-2.3107,-2.3111,-2.3123,-2.3152,-2.3156,-2.3159,-2.3175,-2.318,-2.3115,-2.3115,-2.3115,0,-2.2597,-2.2654,-2.2679,-2.2718,-2.2744,-2.2761,-2.28,-2.2827,-2.2883,-2.29,-2.2896,-2.2983,-2.3014,-2.3073,-2.3084,-2.3104,-2.3115,-2.3105,-2.3153,-2.3157,-2.3161,-2.3176,-2.3181,-2.3115,-2.3115,-2.3115,-2.3115,0,-2.2656,-2.2696,-2.2721,-2.2773,-2.2802,-2.284,-2.2872,-2.2898,-2.2911,-2.2935,-2.2987,-2.3024,-2.3072,-2.3087,-2.3101,-2.3149,-2.3145,-2.3147,-2.3139,-2.3166,-2.318,-2.3186,-2.3115,-2.3115,-2.3115,-2.3115,0,0,-2.2684,-2.2749,-2.2758,-2.2781,-2.2831,-2.2862,-2.2902,-2.2947,-2.2969,-2.3007,-2.3041,-2.3099,-2.3101,-2.3129,-2.3146,-2.3171,-2.3203,-2.317,-2.3171,-2.3174,-2.3257,-2.3255,-2.3261,-2.321,-2.3211,-2.3212,-2.3253,0,-2.2723,-2.2793,-2.2817,-2.2875,-2.2912,-2.2929,-2.2964,-2.2998,-2.3022,-2.3057,-2.3083,-2.3123,-2.3123,-2.3139,-2.3165,-2.3194,-2.322,-2.3191,-2.3242,-2.3243,-2.3229,-2.3269,-2.3267,-2.3304,-2.3259,-2.326,-2.3261,0,-2.2777,-2.2814,-2.2876,-2.292,-2.2937,-2.2967,-2.3011,-2.3044,-2.3084,-2.3099,-2.313,-2.3146,-2.3188,-2.3179,-2.3238,-2.3218,-2.3241,-2.3258,-2.326,-2.3265,-2.3253,-2.3274,-2.3317,-2.3322,-2.327,-2.327,-2.3269,0,-2.2789,-2.2855,-2.2901,-2.292,-2.2974,-2.2995,-2.3018,-2.3057,-2.3083,-2.3121,-2.3138,-2.3182,-2.3205,-2.3239,-2.3266,-2.3257,-2.3323,-2.3316,-2.3337,-2.3336,-2.3349,-2.3348,-2.3395,-2.3365,-2.3365,-2.3365,-2.3365,0,-2.2829,-2.2866,-2.2907,-2.2935,-2.2977,-2.3004,-2.3045,-2.307,-2.3104,-2.3138,-2.3156,-2.3187,-2.3221,-2.3257,-2.3279,-2.3325,-2.3336,-2.3349,-2.3354,-2.3347,-2.3345,-2.3361,-2.3359,-2.3366,-2.3366,-2.3366,-2.3366,0,-2.285,-2.2879,-2.2929,-2.2976,-2.2988,-2.3017,-2.3057,-2.3085,-2.3109,-2.3151,-2.3163,-2.3201,-2.3244,-2.3275,-2.3331,-2.3345,-2.3394,-2.34,-2.338,-2.3382,-2.3401,-2.3399,-2.346,-2.3469,-2.3434,-2.3434,-2.3434,0,-2.2873,-2.2902,-2.2951,-2.2974,-2.2997,-2.3034,-2.306,-2.3089,-2.3115,-2.3162,-2.3185,-2.3229,-2.3265,-2.3334,-2.3367,-2.341,-2.3416,-2.3434,-2.3422,-2.3414,-2.3415,-2.3412,-2.3415,-2.3436,-2.3436,-2.3436,-2.3436,0,-2.2911,-2.2923,-2.2959,-2.3001,-2.3031,-2.3065,-2.3099,-2.3117,-2.3152,-2.3181,-2.3224,-2.3253,-2.3309,-2.3353,-2.3399,-2.3424,-2.3436,-2.344,-2.3447,-2.3439,-2.3426,-2.3432,-2.3384,-2.3438,-2.3438,-2.3438,-2.3438,-2.3438,-2.2933,-2.2959,-2.2997,-2.3037,-2.3065,-2.3097,-2.3125,-2.3152,-2.3189,-2.3236,-2.3251,-2.3296,-2.3336,-2.3398,-2.3424,-2.346,-2.3459,-2.347,-2.3472,-2.3474,-2.3473,-2.3421,-2.3469,-2.3469,-2.3469,-2.3469,-2.3469,0,-2.2971,-2.2996,-2.3032,-2.3079,-2.311,-2.3118,-2.3156,-2.3182,-2.3221,-2.3257,-2.3292,-2.3342,-2.3384,-2.3421,-2.3465,-2.3486,-2.3493,-2.3497,-2.3495,-2.3501,-2.3472,-2.3461,-2.3491,-2.3491,-2.3491,-2.3491,-2.3491,-2.3491,-2.2994,-2.3038,-2.3055,-2.3113,-2.3139,-2.3182,-2.3203,-2.3233,-2.3261,-2.3315,-2.335,-2.3373,-2.3409,-2.3456,-2.3495,-2.3505,-2.352,-2.3522,-2.3533,-2.3506,-2.3503,-2.35,-2.349,-2.3526,-2.3526,-2.3559,-2.3559,-2.3559]},{"header":{"parameterUnit":"m.s-1","parameterCategory":1,"la1":30.2991,"la2":30.254,"lo1":-89.0895,"lo2":-89.0444,"dx":0.0017,"dy":0.0017,"nx":28,"ny":28,"refTime":"2023-01-02T15:00:00:Z","depth":0,"parameterNumber":3,"parameterNumberName":"V-component_of_WINDS"},"data":[0,0,0,0,0,0,0,0,0,0,0,0,0,0,0,0,0,0,0,0,0,0,0,0,0,0,0,0,0,0,0,0,0,0,0,0,0,0,0,0,0,0,0,0,0,0,0,0,0,0,0,0,0,0,0,0,0,0,4.7926,4.7927,0,4.7994,4.7995,4.7996,4.8001,4.8,4.7999,4.7998,4.807,4.8072,4.8075,0,0,0,0,0,0,0,0,0,0,0,0,0,4.7802,4.7804,4.7926,4.7927,4.7928,4.7994,4.7995,4.7996,4.8001,4.8,4.7999,4.7998,4.8069,4.8072,4.8075,0,0,0,0,0,0,0,0,0,0,0,0,0,4.7862,4.7805,4.7926,4.7938,4.794,4.7994,4.7995,4.7996,4.8001,4.8,4.7999,4.7998,4.8068,4.8072,4.8076,4.8123,0,0,4.8088,4.8089,0,0,0,0,0,0,0,0,4.7858,4.7866,4.7935,4.7937,4.7939,4.7988,4.7978,4.8039,4.8001,4.7978,4.7998,4.7997,4.8044,4.8049,4.8065,4.8126,4.8129,4.8088,4.809,4.8092,4.8093,0,0,0,0,0,0,0,4.7854,4.7864,4.7953,4.7936,4.7939,4.7941,4.7948,4.7989,4.8016,4.798,4.798,4.7988,4.8044,4.8061,4.8066,4.813,4.8088,4.8091,4.8094,4.8095,4.8237,4.8239,0,0,0,0,0,0,4.7848,4.786,4.7951,4.7955,4.7895,4.7944,4.7952,4.7973,4.8016,4.8021,4.7989,4.7988,4.8055,4.8062,4.8069,4.813,4.8092,4.8096,4.8098,4.8236,4.8238,4.8239,0,0,0,0,0,0,4.7845,4.7856,4.7948,4.7908,4.792,4.7948,4.7971,4.7975,4.7992,4.8023,4.8028,4.8001,4.8054,4.8063,4.811,4.8132,4.8097,4.8101,4.8234,4.8236,4.8238,4.825,0,0,0,0,0,0,4.7841,4.7855,4.7872,4.7908,4.7922,4.7987,4.7973,4.7978,4.7999,4.7998,4.8035,4.8041,4.8054,4.8104,4.8114,4.8137,4.8104,4.8232,4.8235,4.8238,4.8248,4.8252,4.8256,0,0,0,0,0,4.7837,4.7872,4.7873,4.7884,4.7944,4.7988,4.7996,4.8011,4.8,4.8019,4.8039,4.8039,4.8128,4.8109,4.812,4.8144,4.8231,4.8234,4.8238,4.8246,4.8251,4.8256,0,0,0,0,0,0,4.7838,4.7877,4.7878,4.7926,4.7954,4.7989,4.8013,4.8016,4.8047,4.8046,4.8063,4.8071,4.8118,4.8135,4.8114,4.8194,4.8178,4.8184,4.8181,4.8186,4.819,4.8186,4.8107,0,0,0,0,0,4.7843,4.7875,4.7908,4.7947,4.7961,4.7985,4.8004,4.8013,4.8043,4.8055,4.8078,4.8108,4.8143,4.8165,4.8199,4.825,4.826,4.8272,4.8276,4.828,4.8285,4.8316,4.8323,4.825,4.825,4.825,0,0,4.7855,4.7881,4.79,4.7948,4.7971,4.8005,4.7994,4.803,4.8057,4.806,4.8107,4.8125,4.8159,4.8209,4.8232,4.8225,4.8307,4.8284,4.8286,4.829,4.832,4.8327,4.8334,4.8252,4.8251,4.8251,0,0,4.7896,4.7917,4.7953,4.7977,4.8011,4.8027,4.8036,4.8071,4.8084,4.813,4.8135,4.8166,4.8225,4.825,4.8271,4.8323,4.8325,4.8333,4.8355,4.8386,4.8392,4.8397,4.8419,4.8426,4.8338,4.8338,4.8338,0,4.7907,4.7958,4.7972,4.8009,4.8031,4.8036,4.8074,4.8096,4.814,4.8156,4.8147,4.8223,4.8246,4.8303,4.8316,4.8332,4.8344,4.833,4.839,4.8395,4.84,4.8421,4.8429,4.8339,4.8339,4.8338,4.8338,0,4.7971,4.8007,4.8032,4.8075,4.81,4.8137,4.8158,4.8181,4.8189,4.8206,4.8255,4.8283,4.8323,4.8337,4.8344,4.8396,4.8391,4.8386,4.8371,4.8408,4.8428,4.8436,4.834,4.834,4.8339,4.8339,0,0,4.8014,4.8065,4.8075,4.8096,4.8135,4.8163,4.8202,4.8241,4.8263,4.8293,4.8327,4.8378,4.8374,4.8397,4.8407,4.8433,4.8477,4.8425,4.8426,4.8436,4.854,4.8546,4.8554,4.8478,4.8479,4.848,4.8538,0,4.806,4.8129,4.8143,4.8203,4.8238,4.8244,4.8278,4.8306,4.8324,4.8357,4.8376,4.8413,4.8403,4.8417,4.8444,4.8466,4.8498,4.8461,4.8512,4.8514,4.8506,4.8564,4.857,4.8623,4.8545,4.8547,4.8548,0,4.8124,4.8157,4.822,4.8258,4.8273,4.8303,4.8342,4.8373,4.8406,4.8417,4.8444,4.8452,4.8494,4.8475,4.8535,4.851,4.8531,4.8545,4.8548,4.8555,4.8534,4.8575,4.8639,4.8648,4.8559,4.8558,4.8558,0,4.8153,4.8212,4.8259,4.8276,4.832,4.8342,4.8361,4.8393,4.8417,4.8452,4.8468,4.8506,4.8528,4.8558,4.8577,4.8562,4.8636,4.8619,4.8649,4.8648,4.8666,4.8665,4.8737,4.8675,4.8675,4.8675,4.8675,0,4.8205,4.8244,4.8273,4.8301,4.8346,4.8363,4.8407,4.8427,4.8456,4.849,4.8497,4.8529,4.855,4.8585,4.86,4.8649,4.8658,4.8669,4.8673,4.867,4.8669,4.8686,4.8684,4.8677,4.8677,4.8676,4.8676,0,4.8245,4.8265,4.8317,4.8355,4.8365,4.8397,4.843,4.8459,4.8477,4.852,4.8531,4.8559,4.8601,4.8622,4.8674,4.8684,4.8741,4.8741,4.873,4.8732,4.8761,4.8759,4.8849,4.8863,4.8789,4.879,4.8791,0,4.8278,4.8308,4.835,4.8374,4.8394,4.8431,4.8456,4.8474,4.85,4.8541,4.8566,4.8608,4.8644,4.8711,4.8737,4.8778,4.8781,4.8809,4.8787,4.8784,4.8785,4.8784,4.8788,4.8814,4.8815,4.8815,4.8816,0,4.8336,4.8345,4.838,4.842,4.845,4.8482,4.8513,4.8532,4.8556,4.8585,4.8628,4.8655,4.871,4.8753,4.8796,4.8817,4.8822,4.8822,4.8832,4.883,4.8824,4.8831,4.8743,4.8821,4.882,4.882,4.8819,4.8819,4.8375,4.8404,4.8439,4.8479,4.8504,4.8534,4.8565,4.8586,4.8623,4.8669,4.8677,4.8724,4.8759,4.8817,4.884,4.8878,4.8872,4.8885,4.8889,4.8892,4.8895,4.8816,4.8885,4.8885,4.8885,4.8885,4.8885,0,4.8436,4.8459,4.8495,4.854,4.8572,4.8573,4.8608,4.8636,4.8677,4.8709,4.8744,4.8795,4.8837,4.8867,4.891,4.8935,4.8939,4.8946,4.8946,4.8952,4.8897,4.8886,4.8943,4.8943,4.8943,4.8943,4.8943,4.8943,4.8472,4.8521,4.8535,4.8598,4.8621,4.8667,4.8688,4.8716,4.8742,4.8799,4.8835,4.8853,4.8885,4.8931,4.8971,4.8979,4.8996,4.9004,4.9012,4.8961,4.8955,4.8949,4.8939,4.9007,4.9007,4.9064,4.9065,4.9065]}]]